Location: St. Louis
(38.6270°N, 90.1994°W)
Time: 04:49:01
(UTC-06:00)

Courier 1B - Pass Details

Date: 06 December 2021
Orbit: 962 x 1209 km, 28.3° (Epoch: 19 January)

Event Time Altitude Azimuth Distance (km) Brightness Sun altitude
Rises 20:30:35 0° 261° (W) 3,917 11.4 -44.4°
Reaches altitude 10° 20:34:27 10° 243° (WSW) 2,906 10.4 -45.2°
Enters shadow 20:36:20 14° 229° (SW) 2,558 10.0 -45.5°
